Location: *
(50.5492°N, 7.7469°E)
Time: 15:43:43
(UTC+00:00)

Cosmos 2278 Rocket - Pass Details

Date: 21 October 2019
Orbit: 840 x 847 km, 71.0° (Epoch: 17 November)

Event Time Altitude Azimuth Distance (km) Brightness Sun altitude
Rises 18:38:46 0° 226° (SW) 3,396 5.9 -21.8°
Reaches altitude 10° 18:41:17 10° 232° (SW) 2,466 5.1 -22.2°
Maximum altitude 18:46:46 50° 307° (NW) 1,078 3.0 -23.0°
Drops below altitude 10° 18:52:18 10° 23° (NNE) 2,482 4.5 -23.9°
Enters shadow 18:54:10 - 27° (NNE) 3,168 5.0 -24.2°
